User: anonymous   Login
Location: Castelbiague
(43.0361°N, 0.9246°E)
Time: 20:39:05
(UTC+00:00)
Language:

Okean 1 Rocket - Orbit

View from above orbital plane
View from above orbital plane
View from above satellite
View from above satellite

Ground track
Ground track

The orbit data is extracted from the following two-line orbital elements,

1 19275U 88056B   21270.53615685  .00000100  00000-0  93093-5 0  9992
2 19275  82.5142 307.7113 0021601  96.8719 263.4954 14.82807629794910
Epoch (UTC): 27 September 2021 12:52:03
Eccentricity: 0.0021601
inclination: 82.5142°
perigee height: 605 km
apogee height: 635 km
right ascension of ascending node: 307.7113°
argument of perigee: 96.8719°
revolutions per day: 14.82807629
mean anomaly at epoch: 263.4954°
orbit number at epoch: 79491

The dashed part of the orbit path shows where the satellite is in the earth's shadow,  

DLR